Showing default

ICO G-1, 32763

Orbit data source: Space-Track

ICO G-1, 32763 is a payload satellite owned by ICO North America (US) in GEO that was launched on Mon, 14 Apr 2008 UTC via an ATLAS V 421 launch vehicle from the Air Force Eastern Test Range (AFETR). Payload-class satellites include a variety of spacecraft equipped with specific instruments for various scientific and technological missions. These include communications satellites like Starlink; space stations such as the ISS; scientific satellites like the Hubble; Earth observation satellites from companies like Planet Labs, Umbra, and HawkEye 360; GPS; miniature CubeSats for education and research; and military/defense satellites.

Loading next visibility...
Identifier
32763, 2008-016A
Orbit
GEO
Country
Flag of USUS
Related business
Manufacturer
SS/Loral
Mission
Operational Commercial Communications
Bus & Motor
SSL-1300, R-4D-15-300
Mass
6,600 kg wet, ~3,000 kg dry
Launch date (UTC)
2008-04-14 (17 years ago)
Launch vehicle
ATLAS V 421
Launch site
Air Force Eastern Test Range (AFETR)
Object type
Payload
Rocket body
Debris
Shape & HBR
Box + 2 Pan, Unknown HBR
Radar Cross Section
50.806 m², Large (>1 m²)

Expand to show TLE details & history
Last TLE update: 12 hours ago

TLE from 12 hours ago
0 ICO G-1
1 32763U 08016A   25259.39003233 -.00000188  00000-0  00000-0 0  9990
2 32763   5.4785  36.7096 0002215 129.5421 236.9169  1.00272485 63809
Epoch: 2025-09-16T09:21Z
TLE epoch observation values (Epoch: 2025-09-16T09:21:38.793Z)
Latitude
0.59843°
Longitude
-92.88011°
Altitude
35,790.949 km
Speed
3.074 km/s
True Right ascension
02h 52m 27s
True Declination
0° 35' 52"
Sunlit
Object was in daylight at epoch
Visualization orbit readout
Latitude
Unknown
Longitude
Unknown
Altitude
Unknown
Speed
Unknown
Apparent Right ascension
Unknown
Apparent Declination
Unknown
Sunlit
N/A
Visualization observer readout
Local Sidereal Time
13:47:19
Azimuth
Unknown
Elevation
Unknown
Doppler factor
Unknown
Orbital elements
Apogee altitude
35,796.795 km
Perigee altitude
35,778.115 km
Semi-major axis
42,165.592 km
Eccentricity
0.00022
Inclination
5.4785°
RAAN
36.7096°
Arg. of periapsis
129.5421°
True anomaly
236.89564°
Mean anomaly
236.9169°
Eccentric anomaly
236.90627°
Mean motion
0.25067 °/min
Orbital period
1,436.14 mins
BSTAR
0
Loading maneuver chart data...
Computing Atmospheric mass density...
Loading historical data...
Loading historical data...
Loading historical data...
Loading historical data...
Loading historical data...
Loading historical data...
Loading historical data...
Other satellites on launch #16 in the year 2008 (2008-04-14 UTC)

Documentation

Showing up to 5 results
|